Location: Anzenhof
(48.5742°N, 10.7862°E)
Time: 15:14:30
(UTC+00:00)

Daily predictions for brighter satellites

Satellite Brightness Start Highest point End
(mag) Time Altitude Azimuth Time Altitude Azimuth Time Altitude Azimuth
Cosmos 1842 Rocket 3.6 15:49:38 10° S 15:54:05 82° E 15:58:36 10° NNE
ERBS 3.8 15:52:21 10° WNW 15:55:00 23° NNW 15:57:40 10° NE
Cosmos 540 Rocket 4.1 15:50:27 10° S 15:55:06 37° ESE 15:59:47 10° NE
CZ-4C R/B 3.2 15:51:28 10° NNE 15:55:19 83° ESE 15:58:56 10° SSW
SL-16 R/B 4.4 15:52:30 10° N 15:57:21 25° NW 16:02:13 10° WSW
Lacrosse 5 rocket 2.1 15:55:30 10° NW 15:58:59 32° NNE 16:02:39 10° E
ATLAS CENTAUR R/B 3.6 15:56:54 10° WNW 15:59:57 18° NNW 16:03:09 10° NNE
Cosmos 1092 Rocket 4.2 15:56:14 10° N 16:02:30 56° ENE 16:08:42 10° SSE
Cosmos 1666 4.1 16:01:18 10° NNE 16:03:52 17° ENE 16:06:23 10° ESE
USA 308 3.6 15:59:55 10° WNW 16:03:56 39° N 16:07:56 10° ENE
MOS 1 Rocket 4.2 16:01:03 10° N 16:05:53 52° WNW 16:10:26 10° SW
COSMOS 2455 3.4 16:01:45 10° S 16:07:21 42° ESE 16:12:58 10° NE
Spot 1 4.4 16:06:39 10° NNE 16:11:25 71° ESE 16:16:23 10° S
Cosmos 2322 Rocket 3.5 16:10:01 10° N 16:14:03 19° NE 16:18:05 10° E
Cosmos 1697 Rocket 2.8 16:08:38 10° NNW 16:14:17 82° WSW 16:19:53 10° SSE
CZ-4C R/B 3.0 16:08:59 10° NW 16:15:53 61° NE 16:24:04 10° ESE
Cosmos 468 Rocket 4.0 16:13:28 10° SSW 16:18:38 89° WNW 16:23:54 10° NNE
PSLV R/B 4.3 16:15:52 10° SE 16:19:11 33° ENE 16:22:35 10° N
Cosmos 1980 Rocket 2.2 16:13:53 10° NNW 16:19:32 63° ENE 16:25:07 10° SE
Meteor 2-21 4.5 16:14:47 10° N 16:20:48 58° ENE 16:26:44 10° SSE
NOAA 12 4.2 16:16:13 10° SSE 16:21:33 87° WSW 16:26:54 10° NNW
ATLAS CENTAUR R/B 3.0 16:14:34 10° SW 16:25:03 78° SE 16:28:49 14° ENE
COSMO-SKYMED 1 4.0 16:22:42 12° NE 16:25:07 18° E 16:28:05 10° SE
Cosmos 1898 Rocket 4.0 16:20:14 10° NNW 16:25:27 65° WSW 16:30:35 10° S
Cosmos 1627 Rocket 4.4 16:19:18 10° N 16:25:29 69° ENE 16:31:34 10° SSE
Meteor PRIRODA 4.1 16:21:55 10° S 16:25:31 65° W 16:29:08 10° NNW
Cosmos 2369 3.7 16:20:34 10° NNW 16:26:20 85° ENE 16:32:04 10° SSE
Cosmos 1933 3.3 16:23:48 10° S 16:27:49 76° E 16:31:52 10° NNE
Cosmos 1633 Rocket 3.7 16:25:16 10° N 16:29:14 32° ENE 16:33:10 10° SE
USA 305 3.5 16:25:33 10° WNW 16:29:36 41° N 16:32:38 16° ENE
Cosmos 2279 Rocket 4.5 16:24:05 10° SSE 16:29:44 38° E 16:35:23 10° NNE
FengYun 1-2 T 4.3 16:24:31 10° SSE 16:30:07 88° WSW 16:35:41 10° NNW
Cosmos 2034 Rocket 4.3 16:24:21 10° SSW 16:30:29 72° W 16:36:41 10° N
CZ-4B R/B 3.3 16:26:46 10° S 16:30:43 62° WSW 16:34:29 10° NNW
NOSS 2-2 (C) 4.4 16:26:11 10° NW 16:31:16 90° NNW 16:38:28 10° SE
Cosmos 1812 3.5 16:28:04 10° SSE 16:31:30 31° E 16:34:51 10° NNE
CORIOLIS 4.1 16:26:25 10° SSE 16:31:48 72° ENE 16:37:14 10° N
Cosmos 1818 3.9 16:27:03 10° NNW 16:32:20 45° NE 16:37:34 10° ESE
SL-16 R/B 3.0 16:28:43 10° NNW 16:33:38 29° NE 16:38:31 10° ESE
YAOGAN 1 4.4 16:36:55 14° NE 16:36:55 14° NE 16:38:12 10° NNE
AQUARIUS 4.1 16:31:51 10° SSE 16:36:19 75° ENE 16:40:49 10° N
Cosmos 1151 Rocket 3.6 16:32:47 10° SSE 16:36:42 35° E 16:40:42 10° NNE
Cosmos 2082 Rocket 2.3 16:32:13 10° S 16:37:45 56° ESE 16:43:01 11° NE
USA 267 3.3 16:32:04 13° ENE 16:37:59 75° SE 16:44:32 10° SW
SMAP 3.1 16:36:31 10° SSE 16:41:10 85° WSW 16:45:51 10° NNW
Meteor 2-14 Rocket 4.4 16:35:56 10° N 16:42:04 82° E 16:48:10 10° SSE
Meteor 1-14 Rocket 4.3 16:37:49 10° N 16:43:37 60° ENE 16:49:28 10° SSE
ARGOS 3.5 16:42:48 10° SE 16:47:48 40° ENE 16:52:48 10° N
MOS 1-B 4.3 16:42:12 10° SSE 16:47:53 64° ENE 16:53:36 10° N
Cosmos 2333 Rocket 3.9 16:45:06 10° N 16:48:19 15° NNE 16:49:04 15° NE
Cosmos 1763 Rocket 4.3 16:43:34 10° SW 16:48:30 50° WNW 16:53:30 10° NNE
Cosmos 1634 Rocket 4.0 16:42:55 10° S 16:49:14 80° E 16:55:35 10° N
Cosmos 2278 3.6 16:43:53 10° NNW 16:49:37 76° ENE 16:55:18 10° SSE
Cosmos 2026 Rocket 4.0 16:43:59 10° N 16:50:08 83° W 16:56:12 10° S
CZ-4B DEB 4.2 16:45:38 10° SSE 16:51:08 87° ENE 16:56:40 10° NNW
GEOS 3 Rocket 4.5 16:49:28 20° ENE 16:52:05 30° NNE 16:56:33 10° NNW
Cosmos 44 Rocket 3.3 16:49:35 10° NNW 16:54:29 58° NE 16:59:13 10° SE
Cosmos 1833 Rocket 3.2 16:50:00 10° SW 16:55:31 57° WNW 17:01:06 10° NNE
Cosmos 2150 Rocket 4.4 16:51:23 10° N 16:56:15 39° ENE 17:01:09 10° SE
Cosmos 841 Rocket 3.4 16:51:33 10° SSW 16:56:43 88° WNW 17:01:46 11° NNE
Cosmos 1666 Rocket 3.5 16:52:33 10° N 16:57:01 72° E 17:01:24 10° SSE
Okean O Rocket 2.0 16:53:39 10° SE 16:57:49 41° ENE 17:02:01 10° N
MOS 1-B Rocket 4.2 16:52:05 10° NNE 16:57:59 57° ESE 17:04:40 10° S
Cosmos 1328 Rocket 3.9 16:56:09 10° SSE 17:00:22 44° E 17:03:23 18° NNE
Cosmos 1470 Rocket 4.0 16:56:09 10° N 17:00:22 39° ENE 17:04:34 10° SE
H-2A R/B 1.9 16:56:14 10° SSE 17:01:22 77° ENE 17:06:24 10° NNW
USA 306 3.3 16:57:52 10° WNW 17:01:59 46° NNE 17:03:36 31° ENE
Cosmos 1939 Rocket 4.2 16:58:49 10° S 17:02:45 44° W 17:06:40 10° NNW
COSMOS 2406 3.6 16:58:58 10° SW 17:04:39 63° WNW 17:10:10 11° NNE
Cosmos 2219 Rocket 3.9 17:01:47 10° N 17:04:46 15° NNE 17:04:46 15° NNE
ISS -2.2 17:02:05 10° W 17:05:13 35° SW 17:08:21 10° SSE
ATLAS 2AS CENTAUR R/B 4.2 17:00:57 10° NW 17:07:02 25° N 17:10:37 18° NE
CZ-2C R/B 2.7 17:02:59 12° NNE 17:07:37 48° E 17:12:35 10° S
Meteor 2-21 Rocket 4.4 17:01:47 10° N 17:07:56 86° W 17:13:59 10° S
Cosmos 1125 Rocket 3.7 17:03:31 10° NNW 17:08:34 46° ENE 17:13:37 10° SE
Cosmos 1500 4.2 17:06:53 10° NNW 17:10:30 47° W 17:14:04 10° SSW
USA 234 3.5 17:05:56 10° SE 17:12:27 71° SW 17:19:00 10° WNW
SKYMED 2 3.7 17:11:18 26° NE 17:13:32 51° E 17:17:45 10° S
Meteor 1-27 Rocket 4.5 17:09:57 10° SE 17:14:11 28° E 17:14:11 28° E
Cosmos 1782 3.8 17:13:05 10° SSW 17:16:57 47° WNW 17:20:49 10° N
Cosmos 1900 4.4 17:12:16 10° SSW 17:17:02 58° ESE 17:18:52 35° ENE
Sich 1 4.5 17:14:03 10° NNW 17:18:03 39° W 17:22:04 10° SSW
CZ-2D R/B 3.7 17:14:19 10° S 17:18:06 61° W 17:21:54 10° NNW
Cosmos 1655 Rocket 4.0 17:12:29 10° N 17:18:49 58° ENE 17:25:04 10° SSE
CZ-4B R/B 3.0 17:14:57 10° SSE 17:20:22 85° ENE 17:25:43 10° NNW
USA 307 3.2 17:17:30 10° WNW 17:21:40 50° NNE 17:22:25 44° NE
Cosmos 2180 Rocket 4.4 17:16:35 10° S 17:22:52 72° E 17:29:07 10° NNE
Meteor 2-6 Rocket 4.1 17:17:24 10° S 17:23:05 71° E 17:28:30 11° NNE
SJ-11-01 4.2 17:19:57 10° SSE 17:24:41 76° ENE 17:29:26 10° N
ATLAS 5 CENTAUR R/B 1.8 17:18:56 10° NW 17:25:58 62° NE 17:26:27 54° ENE
deb Chang Zheng 4 3.5 17:26:11 10° SSE 17:30:30 84° WSW 17:34:51 10° NNW
ERBS 4.4 17:29:22 10° NW 17:30:53 17° NNW 17:30:53 17° NNW
Cosmos 2237 4.4 17:28:29 10° NNW 17:34:00 46° NE 17:34:57 42° E
Cosmos 2360 Rocket 2.7 17:32:21 10° NNW 17:37:21 38° NE 17:37:21 38° NE
Lacrosse 5 rocket 1.4 17:34:25 10° WNW 17:38:21 72° SW 17:39:13 51° SSE
Cosmos 1666 4.0 17:36:05 10° NNW 17:39:34 39° W 17:43:02 10° SSW
ATLAS CENTAUR R/B 4.0 17:39:25 10° NNW 17:40:39 11° N 17:41:01 11° N
USA 308 3.0 17:40:06 10° WNW 17:44:08 59° N 17:44:08 59° N
Cosmos 1515 Rocket 3.4 17:40:33 10° S 17:44:48 69° ESE 17:44:48 69° ESE
Meteor 1-11 Rocket 3.6 17:46:47 10° N 17:52:27 85° E 17:58:12 10° SSE
Meteor 1-10 Rocket 4.1 17:46:49 10° S 17:52:36 88° E 17:56:15 23° NNE
COSMOS 2455 3.7 17:47:30 10° WSW 17:53:16 46° NW 17:56:39 24° NNE
COSMOS 2428 4.4 17:49:48 10° N 17:52:06 18° NNE 17:52:06 18° NNE
Cosmos 921 Rocket 3.0 17:53:52 10° SSW 17:57:55 75° W 17:57:55 75° W
Cosmos 2322 Rocket 2.0 17:53:20 10° NNW 17:59:05 78° ENE 18:00:15 57° SE
SL-08 RB Rocket 3.9 17:55:13 10° S 17:59:50 73° WSW 18:04:27 10° NNW
COSMO-SKYMED 1 3.2 17:59:55 33° NNW 18:01:36 54° WNW 18:05:50 10° SSW
Cosmos 2298 Rocket 4.4 17:56:55 10° NNW 18:02:12 62° WSW 18:07:26 10° S
Cosmos 1980 Rocket 4.5 17:58:39 10° NW 18:03:04 24° WSW 18:07:27 10° SSW
CZ-4C R/B 4.0 17:57:37 10° NW 18:04:33 45° WSW 18:12:28 10° S
Meteor 2-15 Rocket 4.4 18:03:29 10° S 18:09:37 83° W 18:14:07 20° N
USA 305 3.7 18:05:33 10° WNW 18:08:39 47° WNW 18:08:39 47° WNW
YAOGAN 1 4.4 18:14:04 22° NNW 18:14:04 22° NNW 18:15:40 10° NNW
CZ-2C R/B 4.0 18:13:54 10° SSW 18:14:25 11° SSW 18:14:25 11° SSW
SL-16 R/B 2.6 18:12:32 10° NW 18:18:08 61° WSW 18:21:04 28° S
USA 267 3.6 18:19:25 45° NNE 18:20:52 54° NNW 18:27:12 10° W
Cosmos 2237 Rocket 4.5 18:17:37 10° N 18:17:59 11° N 18:17:59 11° N
Cosmos 2082 Rocket 3.7 18:17:10 10° WSW 18:22:10 31° NW 18:24:53 21° N
GEOS 3 Rocket 3.9 18:30:35 63° WNW 18:30:35 63° WNW 18:35:00 10° NW
Cosmos 2333 Rocket 3.6 18:28:21 10° NNW 18:31:06 27° N 18:31:06 27° N
Okean O Rocket 3.8 18:30:41 10° SSW 18:34:19 24° W 18:37:59 10° NW
CZ-2C R/B 4.4 18:44:29 15° NNW 18:47:40 27° WNW 18:51:58 10° WSW
Cosmos 2219 Rocket 4.1 18:44:40 10° NNW 18:46:30 21° NNW 18:46:30 21° NNW
ATLAS CENTAUR R/B 4.5 18:51:44 10° WNW 18:54:28 19° NW 18:54:28 19° NW
NOSS 3-4 (A) 4.4 18:50:19 10° NW 18:55:00 45° NNW 18:55:00 45° NNW
NOSS 3-4 (C) 4.4 18:50:25 10° NW 18:55:05 45° NNW 18:55:05 45° NNW
ATLAS 2AS CENTAUR R/B 3.9 18:53:16 10° NW 18:58:02 32° N 18:58:02 32° N
Cosmos 2360 Rocket 4.0 19:16:23 10° NW 19:19:09 27° WNW 19:19:09 27° WNW
